Погода в Саранах

Россия / Пермский край     58°32′46″N   58°45′35″E
темп.,
°C
ветер,
м/с
пор.,
м/с
влажн.,
%
обл.,
%
осадки,
мм/ч
давл.,
гПа
погр.,
м
26 февраля, пт
пт2623:00−26зюз0110031 0.0 102820
02:00−27ююз1110027 0.0 102819
05:00−28ю0110014 0.0 102819
08:00−28ююв1110053 0.0 102719
11:00−21ю139150 0.0 1026228
14:00−16ю237947 0.0 1025463
17:00−15ю258642 0.0 1024577
20:00−21вюв129639 0.0 102320
27 февраля, сб
сб2723:00−23в129720 0.0 102220
02:00−24всв1210025 0.0 102020
05:00−24всв239712 0.0 101940
08:00−26всв411950 0.0 1017231
11:00−24в5129838 0.0 1016285
14:00−20в7139599 0.0 1014411
17:00−19в7149399 0.1 1014554
20:00−21в71493100 0.1 1014594
28 февраля, вс
вс2823:00−22в61394100 0.1 1014527
02:00−23всв61494100 0.0 1013407
05:00−24всв6149499 0.0 1014371
08:00−25всв6159393 0.0 1013343
11:00−22всв6149486 0.0 1014341
14:00−19всв5119278 0.0 1013392
17:00−19всв5109380 0.0 1014384
20:00−23всв4119585 0.0 1015303
1 марта, пн
пн123:00−24всв4129576 0.0 1017274
02:00−25св269724 0.0 1018140
05:00−26ссв229720 0.0 101935
08:00−26ссв229726 0.0 102020
11:00−18ссв139024 0.0 1020295
14:00−11сз1384100 0.0 1020557
17:00−13зсз3593100 0.1 1019350
20:00−18з2410090 0.0 101981
2 марта, вт
вт223:00−21зюз2210077 0.0 101920
02:00−22зюз2410083 0.0 101691
05:00−20юз31210091 0.1 1014319
08:00−18юз51296100 0.0 1010413
11:00−15юз61394100 0.3 1008479
14:00−13юз61192100 0.3 1007616
17:00−13юз51093100 0.5 1006585
20:00−14зюз51195100 0.1 1005517